User: anonymous   Login
Location: Baix
(44.7118°N, 4.7648°E)
Time: 01:04:18
(UTC+00:00)
Language:

Cosmos 1908 - Orbit

View from above orbital plane
View from above orbital plane
View from above satellite
View from above satellite

Ground track
Ground track

The orbit data is extracted from the following two-line orbital elements,

1 18748U 88001A   20293.13143928  .00000281  00000-0  13331-4 0  9998
2 18748  82.4689 295.5512 0013274 359.4173   0.7041 15.15015707790409
Epoch (UTC): 19 October 2020 03:09:16
Eccentricity: 0.0013274
inclination: 82.4689°
perigee height: 512 km
apogee height: 530 km
right ascension of ascending node: 295.5512°
argument of perigee: 359.4173°
revolutions per day: 15.15015707
mean anomaly at epoch: 0.7041°
orbit number at epoch: 79040

The dashed part of the orbit path shows where the satellite is in the earth's shadow,  

DLR